Theta_e
345 345 343 347 353 354 360 367 367 369 371 359 358 361 358 361 363 363 364 358 357 357 355 357 356 357 363 365 363 361 359 362 363 359 358 359 354 353 354 352 353 353 352 353 353 353 353 354 353 353 352 351 350 349 349 350 350 351 352 350 350 350 349 348 348 347 347 348 349 350 350 350 350 349 349 349 349 350 350 351 351 350 349 349 350 350 350 351 350 350 350 351 350 350 349 346 345
345 345 344 351 355 357 363 367 368 364 363 358 355 360 358 360 361 360 359 354 358 357 355 356 356 357 357 358 356 359 360 357 358 359 358 356 355 355 353 352 353 352 352 353 354 353 354 354 354 354 352 351 352 350 352 353 351 351 352 351 351 351 348 348 348 347 348 349 349 350 350 350 350 350 350 349 349 350 350 350 350 349 349 349 349 349 350 350 350 349 350 351 350 349 348 345 343
346 347 348 353 356 361 365 364 366 354 353 357 355 362 362 360 360 355 355 352 355 353 355 356 355 356 355 359 357 361 361 355 354 355 356 355 356 355 353 352 352 352 353 354 353 353 353 355 354 355 353 352 353 353 353 353 351 351 352 351 350 350 348 347 347 347 348 349 350 350 350 349 350 350 349 349 349 350 350 350 350 349 349 350 349 349 349 350 350 350 349 349 348 349 346 344 343
348 352 353 356 359 366 371 368 370 359 353 355 353 360 360 357 354 352 355 352 352 351 354 354 356 356 355 361 357 359 360 356 355 355 356 355 355 355 354 353 353 353 353 353 352 351 353 354 355 355 354 352 352 353 351 350 349 350 352 350 349 348 347 346 346 348 349 350 351 350 349 349 349 349 349 349 350 350 350 350 349 348 349 350 349 349 349 349 349 349 350 349 349 349 346 344 344
351 355 355 357 366 370 370 367 374 363 353 355 351 358 356 353 353 351 353 353 351 351 353 354 358 355 355 358 356 359 359 356 356 355 356 355 355 355 355 354 353 353 353 353 352 351 352 354 355 355 354 352 352 351 349 348 348 349 350 349 348 348 347 347 347 349 350 350 350 349 348 348 348 349 349 350 350 350 350 348 346 346 348 349 348 348 348 347 348 349 349 350 349 349 348 346 345
355 357 356 358 364 364 361 360 362 354 353 357 353 358 355 350 353 351 352 353 352 353 353 355 356 356 357 356 355 357 358 357 356 355 357 356 356 355 355 355 354 355 354 353 352 352 353 352 353 355 354 352 351 350 348 347 347 349 349 348 347 348 349 348 348 350 350 350 350 349 348 347 348 349 349 348 349 349 348 346 346 346 347 347 346 346 347 347 348 348 348 348 349 349 348 347 346
357 360 361 361 360 359 361 355 353 348 352 358 353 354 352 349 351 351 353 352 354 355 354 355 354 357 359 356 357 356 355 356 356 356 357 356 356 355 355 355 355 356 354 353 353 352 352 352 352 354 355 353 351 349 348 347 347 348 348 348 348 350 350 349 349 350 349 349 350 349 348 347 347 349 348 348 349 348 347 346 346 345 344 344 344 345 345 345 345 346 346 347 348 349 348 347 347
358 362 361 364 365 362 360 354 354 352 351 357 352 351 352 350 350 349 352 352 354 355 355 355 353 359 359 356 359 357 355 356 356 357 356 356 356 355 355 355 356 356 355 354 353 353 353 352 352 353 354 354 351 349 348 347 346 347 347 348 349 351 352 351 351 351 349 349 349 349 346 346 347 348 347 348 349 348 347 346 343 342 341 340 341 342 342 341 342 343 344 346 347 348 348 347 346
359 361 358 360 363 357 351 349 350 351 350 353 349 352 352 350 350 349 352 354 354 355 357 356 354 360 359 358 359 356 355 356 355 357 356 356 356 356 356 356 356 356 355 354 352 353 353 352 351 352 355 355 352 349 348 348 347 347 347 349 350 352 353 352 352 350 349 349 349 348 346 346 347 347 347 347 348 348 348 345 341 339 339 338 339 340 341 341 341 342 343 345 346 347 347 347 347
359 359 359 359 358 347 340 338 341 346 349 350 349 351 351 350 350 348 351 354 354 356 356 354 354 357 358 359 359 356 355 356 356 356 356 356 357 356 356 356 356 355 354 353 353 353 353 352 353 353 354 354 353 350 349 350 349 348 349 351 351 352 354 353 351 350 349 348 349 348 346 346 346 346 347 347 348 349 348 345 340 339 339 340 340 341 342 343 344 345 345 345 346 347 348 348 349
361 359 358 357 352 340 334 333 336 346 348 347 350 349 349 349 350 349 352 354 354 356 355 353 355 356 357 358 358 357 356 356 357 357 356 356 357 357 356 355 355 355 352 352 353 354 354 354 354 354 351 351 352 351 350 350 350 350 350 351 352 353 353 352 351 350 349 348 348 348 346 344 344 346 347 347 348 350 349 344 340 340 342 342 342 343 343 345 346 346 346 346 346 347 348 348 349
363 362 357 354 346 341 340 337 336 344 348 348 348 347 349 348 349 350 352 355 354 355 355 355 356 355 358 359 358 357 356 356 356 356 356 356 357 356 356 356 356 354 352 352 354 354 355 354 354 353 351 351 352 352 351 350 350 351 352 353 353 352 352 352 351 350 350 349 348 347 345 344 343 345 347 347 348 350 349 344 340 341 343 342 342 343 344 346 346 347 348 346 346 347 346 346 346
358 358 356 351 348 347 344 338 340 345 343 346 347 346 348 348 350 350 350 353 353 355 355 354 353 355 359 359 357 356 356 356 356 356 356 356 356 356 356 356 356 355 353 352 354 354 354 353 353 352 352 352 352 353 352 352 352 353 353 353 352 351 352 351 351 350 349 348 347 346 345 344 343 345 347 347 349 350 349 345 343 343 342 340 342 344 344 346 345 347 348 345 345 345 344 344 344
351 355 359 356 355 348 345 347 346 341 337 342 345 344 347 347 348 348 349 351 353 356 354 352 351 356 359 359 358 356 357 356 356 356 355 355 356 357 356 357 355 355 355 353 353 354 353 353 353 353 353 353 352 353 352 352 352 352 352 352 351 351 351 350 349 348 347 346 345 345 344 343 344 346 347 347 349 350 347 345 345 343 341 341 343 344 344 345 345 346 347 346 346 344 344 345 344
348 356 359 356 352 342 352 367 351 336 337 341 344 344 345 344 345 347 348 351 353 352 351 352 351 357 358 359 359 356 356 356 357 356 356 356 355 357 356 357 356 356 355 355 354 353 353 352 354 354 353 353 352 352 351 352 351 351 352 352 352 351 350 348 347 346 345 345 344 344 344 345 345 346 347 347 348 348 346 345 345 342 341 342 344 344 344 345 345 345 346 347 346 344 345 347 346
346 363 367 354 348 338 348 360 348 344 344 340 342 342 344 343 344 347 348 350 352 350 351 352 350 355 355 356 357 355 355 356 356 355 356 355 355 357 357 357 357 356 356 355 355 354 353 352 353 353 351 350 349 349 350 351 350 351 351 351 351 349 347 346 345 345 345 345 345 345 345 347 346 346 348 347 347 348 346 346 346 343 341 343 346 346 345 345 347 346 345 346 345 345 345 347 349
347 375 373 350 345 339 342 346 354 361 349 340 342 339 343 346 346 347 346 347 350 352 351 351 349 352 353 353 355 354 356 356 357 356 355 355 355 356 356 357 357 357 357 356 355 354 353 351 351 350 349 349 349 349 349 350 350 351 352 351 350 347 346 345 345 345 345 346 346 346 346 347 346 347 348 348 349 348 347 347 345 343 341 344 348 349 348 350 350 348 346 347 347 347 347 347 350
349 374 363 343 344 343 345 346 353 361 348 340 342 341 344 346 346 345 345 346 349 351 349 349 351 352 352 353 354 354 356 356 357 356 357 356 355 356 356 357 357 358 357 357 356 356 354 350 349 349 349 350 349 349 350 350 351 352 351 350 349 347 346 346 346 345 345 346 347 347 347 348 349 349 349 352 354 351 349 348 345 344 345 347 351 351 351 353 353 351 350 350 350 350 350 350 350
347 364 357 346 347 344 346 345 343 350 348 343 341 343 343 343 344 343 345 347 348 348 349 351 353 353 351 352 353 355 356 356 357 356 357 356 356 356 356 357 357 357 357 357 357 357 355 351 350 351 351 352 350 350 350 350 350 350 349 348 348 347 346 346 345 346 346 347 348 347 347 351 353 353 352 354 356 353 350 348 346 349 350 350 352 353 352 353 353 353 353 353 351 350 350 352 351
343 356 357 350 346 343 343 343 342 346 346 343 342 341 340 339 340 342 343 345 346 348 351 354 355 353 352 353 354 354 356 356 356 356 356 356 356 356 356 357 357 357 357 357 357 357 355 351 351 351 351 352 350 349 349 348 348 347 347 347 347 347 346 346 346 347 349 349 349 347 349 353 354 353 354 354 355 353 350 349 349 351 352 351 352 353 352 352 352 352 353 352 351 351 351 352 352
342 348 350 347 344 341 342 343 343 344 345 344 343 339 338 338 338 341 342 346 347 348 352 354 354 352 352 353 354 355 356 356 356 356 356 356 356 356 357 357 357 357 357 357 357 357 355 352 352 351 352 353 351 349 348 346 346 346 347 347 347 347 346 346 346 349 352 352 351 350 351 353 354 354 353 352 353 351 349 350 351 352 352 350 351 353 352 352 352 352 351 352 351 352 352 351 351
340 342 344 344 342 340 342 345 343 344 344 343 341 339 338 336 337 339 341 347 347 348 352 352 351 351 351 353 353 354 355 356 357 356 356 356 356 356 356 357 357 357 357 357 356 357 357 355 354 354 354 355 353 350 348 346 346 347 347 347 347 347 346 345 347 351 353 353 353 353 352 352 354 353 351 351 351 350 350 351 352 352 352 351 352 352 352 352 352 351 351 351 351 352 352 351 351
336 338 343 343 341 341 341 343 345 345 344 342 340 339 338 336 337 338 340 344 345 348 351 350 350 350 350 352 353 354 354 354 355 356 356 356 356 356 356 357 358 358 358 357 357 357 358 357 356 355 355 355 353 351 349 347 346 348 347 347 347 347 347 346 349 352 353 353 352 353 353 352 353 351 351 352 352 352 352 352 351 352 353 352 352 352 352 352 351 351 351 351 351 352 352 351 351
334 336 343 342 339 340 340 342 344 345 344 342 340 338 339 338 338 338 339 342 346 349 350 349 350 350 351 351 352 352 353 354 354 355 355 355 355 355 356 357 358 358 358 358 358 357 357 358 356 353 353 354 353 353 352 347 347 352 351 350 350 350 351 349 350 353 353 351 350 351 351 352 353 352 352 353 353 353 353 352 351 352 353 353 353 352 353 353 351 351 351 351 352 353 353 351 351
334 335 339 340 340 340 339 338 340 343 344 342 342 341 340 338 338 340 342 345 349 351 350 350 350 350 351 351 352 352 353 353 353 354 354 354 354 354 355 356 358 358 358 358 357 358 357 357 356 353 353 354 355 356 355 349 348 356 356 354 354 353 354 352 351 354 352 350 349 349 350 351 353 353 353 353 353 354 353 352 352 353 353 353 353 353 354 353 350 352 352 352 353 353 353 351 350
333 333 335 336 339 339 339 338 339 342 343 343 343 341 340 338 337 339 344 347 348 350 350 351 351 351 351 351 351 353 353 351 352 353 352 352 353 353 354 354 356 357 357 358 357 357 357 356 356 354 354 355 356 356 356 352 352 357 357 355 355 354 354 353 353 354 353 351 350 349 351 352 352 353 353 353 353 354 353 353 353 354 354 353 353 353 354 353 351 353 354 353 353 353 352 349 348
333 333 332 333 337 338 339 338 339 341 342 344 343 339 338 336 336 339 344 346 348 351 351 350 351 352 352 351 351 352 352 350 350 352 351 351 351 352 353 353 355 356 357 358 357 357 357 357 356 356 355 355 356 356 356 355 354 355 356 355 354 353 354 354 353 354 354 354 351 350 352 353 352 353 353 353 353 354 355 354 354 354 353 353 353 354 354 353 353 353 353 353 353 352 349 346 344
332 332 331 331 335 338 338 338 338 341 343 344 342 341 340 337 338 340 343 347 348 350 351 350 350 352 352 351 352 353 352 350 349 349 350 350 351 351 351 353 354 355 357 357 358 358 357 357 357 357 356 356 356 355 355 355 355 354 354 354 353 353 354 354 354 354 354 353 353 352 353 354 355 355 353 354 354 355 356 355 354 353 352 353 353 354 354 354 354 353 353 353 352 349 346 344 344
329 330 331 330 332 335 337 337 338 341 343 343 343 342 342 341 339 339 343 346 348 349 350 350 350 351 351 351 352 354 352 349 348 349 349 350 350 351 351 352 354 355 356 356 357 358 357 357 357 357 356 357 356 355 355 355 355 354 354 354 353 353 354 355 354 353 353 353 353 353 353 355 356 355 354 355 356 355 356 356 355 355 354 354 354 354 354 353 353 354 353 352 350 347 346 345 344
329 330 330 330 329 332 336 337 337 340 341 342 344 336 339 344 340 338 342 345 347 348 349 348 349 350 350 351 352 353 352 349 348 348 349 350 351 352 352 353 353 354 356 356 357 357 357 357 357 357 357 357 356 355 355 354 354 354 354 354 353 353 354 354 353 353 353 352 352 354 355 355 355 354 353 354 356 356 357 356 356 357 355 354 354 354 353 352 352 353 351 350 348 346 345 342 339
330 329 330 330 323 326 336 336 336 339 338 342 344 334 338 346 340 339 341 344 346 348 348 348 348 349 348 350 352 352 351 348 348 348 349 350 352 352 353 354 354 355 356 356 357 357 357 357 357 357 357 357 357 356 356 355 354 354 355 355 354 354 354 353 354 354 353 352 353 355 356 356 355 352 350 352 353 354 356 357 356 356 356 354 353 352 351 350 352 352 349 347 347 346 341 335 335
329 323 321 327 321 324 336 336 336 338 338 341 342 334 341 348 342 339 339 343 346 346 347 346 347 348 347 349 352 350 350 348 347 347 349 349 351 351 353 354 354 355 355 356 356 356 357 356 356 357 356 357 357 356 356 356 355 355 355 355 355 355 355 355 355 354 353 354 355 356 357 357 355 352 349 352 352 352 355 357 357 355 355 353 349 348 349 349 352 351 347 346 347 343 336 335 340
327 322 316 321 321 323 332 337 337 339 339 341 341 337 344 349 345 340 338 342 344 345 345 346 346 347 347 349 350 349 349 350 348 348 347 348 349 349 351 353 353 354 355 355 355 356 357 355 355 357 357 356 357 357 356 356 356 356 356 355 355 356 355 356 355 354 355 355 357 356 357 356 354 351 351 353 351 352 357 358 356 355 354 351 344 344 348 350 352 349 346 346 345 340 337 341 344
321 323 318 320 323 321 324 334 338 338 340 342 341 343 345 347 345 341 340 341 342 343 344 344 346 347 348 349 349 349 350 351 349 348 347 347 348 348 351 351 352 354 354 354 354 355 355 354 355 357 358 356 356 357 356 356 357 357 357 355 356 356 355 355 354 354 355 356 357 356 356 356 355 353 352 353 351 354 359 358 356 355 351 345 341 344 348 348 347 346 345 343 340 340 342 343 343
316 318 317 319 323 323 324 330 337 338 341 343 342 343 345 346 346 343 341 340 341 343 343 344 344 346 346 348 349 348 348 350 349 348 347 348 348 347 350 351 352 352 351 352 353 353 352 352 355 356 358 355 354 358 356 356 357 357 357 356 356 356 355 355 354 353 354 355 356 355 356 356 356 354 352 353 353 356 360 358 356 355 348 341 342 346 347 346 345 345 343 338 339 343 343 342 343
322 321 319 318 319 322 329 335 338 339 341 343 343 341 343 348 348 346 343 341 340 342 342 342 344 345 345 347 349 348 349 349 347 347 347 348 348 348 349 350 351 352 350 351 351 351 351 352 354 355 358 356 355 358 357 357 358 356 356 356 355 356 355 354 354 354 355 355 355 356 356 356 356 355 353 353 354 357 359 357 356 353 347 345 345 345 345 345 344 342 338 335 337 341 342 344 344
327 325 322 322 320 321 333 338 338 339 338 339 345 344 344 348 348 347 344 342 342 341 342 342 343 345 344 345 347 348 349 348 346 347 346 347 349 348 349 349 351 352 350 351 351 350 351 353 353 355 357 357 355 358 358 357 358 357 356 356 355 356 356 355 354 355 356 356 356 357 356 356 357 356 354 353 353 357 357 356 354 349 347 348 346 344 344 342 339 336 337 340 341 340 342 344 342
327 325 321 320 321 323 333 339 337 340 338 337 345 345 345 347 347 347 346 343 342 341 342 342 343 345 344 345 347 348 349 348 347 348 346 346 349 348 349 349 350 352 351 351 352 350 351 353 353 355 357 357 356 357 358 357 358 358 356 357 357 356 357 357 355 354 356 358 357 357 357 357 358 358 356 352 353 357 356 353 352 349 348 348 344 344 342 337 336 338 341 343 343 341 342 343 339
326 325 321 317 322 326 331 338 338 338 337 339 344 342 343 346 348 352 351 346 344 343 343 343 342 345 344 344 345 348 349 349 348 348 347 346 348 348 348 349 350 351 352 352 352 351 352 354 353 355 357 358 358 356 358 358 358 358 357 358 359 357 357 358 357 356 356 358 358 357 358 358 359 358 357 355 356 358 355 353 350 347 347 346 344 344 341 337 339 341 341 342 342 342 343 343 340
326 325 319 316 323 323 322 331 339 340 337 340 345 342 343 348 348 352 353 349 346 344 345 344 343 344 345 343 344 347 349 350 350 348 348 346 347 348 348 349 349 350 353 353 353 352 353 354 353 355 357 358 358 357 357 358 358 359 358 359 359 359 358 358 359 358 358 359 358 359 358 358 359 358 358 358 358 357 355 352 349 346 347 347 345 342 339 340 341 340 342 343 341 343 343 342 342
325 326 321 319 324 324 323 332 339 338 337 342 343 333 336 347 348 349 350 348 347 346 347 347 346 344 344 343 343 347 347 349 350 349 349 348 347 348 349 349 349 350 352 354 354 353 354 355 353 354 356 357 358 358 357 358 359 359 359 359 359 359 360 359 360 360 359 359 358 359 359 359 359 358 358 359 359 357 354 351 349 347 347 347 344 339 336 340 342 339 341 341 340 343 343 342 342
319 326 327 324 328 328 328 334 333 326 326 338 339 324 328 345 346 347 348 348 349 349 349 349 349 348 345 345 344 346 347 348 350 350 348 348 346 347 349 349 350 350 352 354 355 354 354 355 355 354 356 357 358 358 358 359 360 359 359 360 359 359 360 360 360 360 359 359 358 359 360 360 359 358 359 360 358 356 353 351 350 348 348 346 342 336 337 341 342 341 340 340 341 342 342 342 342
313 322 329 329 330 329 326 328 325 319 320 336 339 327 326 336 339 347 349 348 351 349 350 350 351 351 346 346 345 345 346 346 349 350 348 348 346 348 350 350 350 351 352 354 356 356 355 355 356 355 355 357 358 359 359 359 360 359 358 359 359 359 359 359 359 358 358 358 357 357 359 359 359 358 360 360 358 355 352 351 350 349 347 346 342 337 338 340 339 340 341 341 343 342 341 343 343
314 324 329 329 329 327 327 324 321 323 326 333 335 332 327 327 336 350 350 347 350 349 351 351 350 352 348 346 347 345 346 347 347 349 348 348 347 348 350 351 351 352 352 354 356 357 357 356 357 357 356 356 357 359 359 359 359 359 359 359 359 358 357 357 357 357 357 357 356 356 357 358 358 359 359 358 357 354 352 351 349 349 347 347 345 336 334 338 338 340 342 341 343 341 340 342 340
320 327 328 328 329 329 329 324 320 325 326 322 327 329 326 325 338 354 353 346 348 350 351 352 352 351 349 348 349 347 346 347 347 347 348 348 346 347 350 352 351 352 354 354 355 358 358 357 358 359 358 357 357 359 359 359 359 360 359 358 358 358 357 356 355 355 356 357 356 356 356 357 357 358 358 357 356 354 351 350 349 348 346 347 344 334 333 340 341 342 343 342 341 338 338 341 340
324 327 327 328 329 328 330 327 321 320 321 318 322 325 323 325 334 344 345 342 345 350 350 352 354 351 350 350 349 349 348 348 348 347 348 348 346 347 351 352 352 353 354 355 355 357 359 359 358 360 361 359 358 358 359 359 359 359 359 358 358 358 358 358 356 355 356 357 357 355 355 356 358 358 358 356 355 353 350 349 348 346 345 346 340 333 338 343 343 342 342 341 339 337 338 340 341
325 327 326 326 327 328 330 330 323 317 318 321 322 324 325 325 330 337 341 343 346 351 350 352 354 352 352 351 348 349 349 349 349 348 349 349 346 347 351 353 353 353 355 355 355 357 359 360 359 360 362 361 360 359 359 358 358 359 359 358 358 359 359 360 359 357 357 357 356 355 355 357 358 358 357 356 354 352 350 350 348 345 345 345 337 334 341 344 341 340 340 340 340 339 339 339 340
324 326 324 318 318 321 320 321 322 317 318 323 324 324 323 321 329 341 346 350 349 348 349 350 352 351 351 350 348 350 350 350 350 349 350 350 350 349 351 354 353 354 355 356 356 356 359 361 360 360 361 362 361 360 359 358 359 359 359 359 359 359 359 361 360 359 358 358 356 356 357 357 357 357 356 355 353 352 351 349 346 344 344 343 337 334 341 343 339 338 340 342 342 342 340 339 340
324 322 318 313 312 314 314 314 317 316 318 324 325 325 322 320 332 345 347 349 349 347 348 348 348 350 351 350 350 350 350 350 350 351 350 351 353 351 351 354 353 354 355 357 356 357 359 361 361 361 361 362 362 361 360 359 359 360 360 360 359 359 360 361 361 360 359 358 357 356 356 356 357 357 356 354 353 352 350 346 345 345 342 341 338 335 340 344 339 336 340 343 343 342 342 341 340
321 316 312 312 313 313 314 315 316 317 318 321 324 325 320 319 332 344 346 345 347 347 346 346 347 349 350 350 350 349 350 350 350 351 351 352 354 352 351 353 354 354 355 357 357 357 358 360 362 361 361 362 362 362 361 359 359 360 360 360 360 361 361 361 360 360 360 359 357 356 356 356 356 357 356 355 353 351 348 345 345 345 343 341 338 335 340 345 342 338 340 342 342 341 342 343 341
321 322 319 314 313 313 314 315 314 316 318 318 320 320 316 318 333 345 343 343 345 346 346 346 347 349 350 350 349 348 348 351 351 351 353 354 354 352 351 353 355 354 355 356 357 357 359 360 361 362 362 362 362 363 363 361 360 360 361 361 361 362 362 361 360 360 360 359 357 356 356 356 356 356 355 354 353 350 348 346 345 345 345 343 340 338 340 342 342 341 341 342 341 339 341 343 341
321 325 319 313 315 317 315 316 316 315 317 316 315 317 322 332 345 346 341 342 343 345 347 348 348 349 350 349 349 349 349 352 353 352 355 357 355 352 351 353 355 355 355 356 358 359 360 360 361 362 362 362 363 363 363 363 361 361 361 361 361 362 362 361 361 360 360 359 357 357 356 356 356 356 355 354 353 350 348 346 345 344 345 344 341 342 342 340 342 342 341 342 341 340 342 342 340
321 318 313 316 324 324 314 313 315 314 315 317 313 316 324 332 340 343 341 342 342 345 347 348 351 352 351 350 350 350 350 353 354 355 356 358 357 353 352 353 354 356 356 357 357 359 360 361 362 363 363 363 363 363 363 363 363 362 362 362 362 362 363 361 361 360 360 360 358 357 358 357 357 356 355 354 352 350 348 346 345 343 343 343 342 344 344 341 341 341 341 341 339 340 342 341 340
319 313 316 323 326 324 318 313 313 314 315 315 313 315 318 319 327 341 344 342 341 345 346 348 352 353 350 350 351 352 353 352 353 355 356 358 359 356 353 353 355 356 356 356 358 358 360 362 362 363 364 365 364 364 364 363 363 364 363 363 363 363 363 362 361 360 360 360 359 358 359 359 358 357 356 353 352 350 348 346 346 344 342 343 343 344 345 343 341 340 340 341 340 340 341 341 341
323 318 323 323 315 314 314 312 313 314 315 314 314 316 317 317 324 335 340 344 344 345 346 346 350 353 351 350 351 353 352 352 352 353 355 356 357 356 353 353 354 356 356 357 357 358 360 362 364 364 364 365 365 364 364 364 364 364 364 364 363 363 363 361 361 361 361 361 360 360 360 360 358 357 355 352 351 350 348 346 347 346 342 342 343 343 344 345 343 341 340 340 340 340 341 341 341
324 323 325 323 317 314 314 313 313 314 315 315 316 316 317 326 337 338 340 346 346 345 346 346 347 351 352 350 351 352 351 351 349 350 353 355 355 355 353 353 355 356 357 358 358 358 359 362 364 365 365 366 366 365 365 364 364 364 365 364 363 363 362 362 361 362 361 361 361 360 360 360 359 357 355 352 350 349 349 347 347 347 344 341 343 344 344 344 344 343 340 340 340 339 340 341 342
319 318 317 316 318 318 317 315 313 313 315 317 319 316 317 337 351 344 344 345 343 346 346 345 345 347 350 350 350 350 349 350 349 347 351 354 353 353 353 353 354 356 357 358 358 358 358 361 363 366 366 366 367 367 365 365 364 365 365 364 364 363 362 362 362 362 362 361 361 361 360 360 359 357 356 352 350 349 348 348 347 347 345 342 342 344 345 344 343 343 341 339 339 339 339 340 342
321 318 316 316 316 314 313 315 313 311 311 315 320 316 320 344 349 343 350 346 340 346 346 345 344 343 346 349 348 349 349 349 349 347 349 352 353 352 352 353 354 355 357 357 357 358 358 360 362 364 366 367 367 367 366 365 365 365 365 364 364 363 362 362 362 362 362 361 362 361 360 360 359 357 356 353 351 349 348 348 347 347 346 343 342 344 345 345 343 342 342 340 339 340 340 340 342
Wind_Speed
13 13 13 12 11 9 5 2 1 1 0 1 1 1 2 4 4 4 2 3 8 9 10 9 8 10 9 7 9 11 11 4 0 2 3 7 21 23 20 26 28 25 25 24 23 22 21 21 21 22 22 23 24 24 24 23 24 23 21 21 21 20 20 21 21 22 20 19 18 18 18 17 17 18 18 18 17 17 17 16 15 15 15 15 14 13 12 12 12 12 12 11 12 11 10 11 11
15 14 13 12 10 6 1 1 1 1 1 2 0 1 2 3 4 3 7 10 11 10 12 12 13 14 14 10 8 12 13 9 5 6 7 19 25 22 26 29 28 27 26 25 24 24 22 21 21 21 22 23 22 22 21 21 23 23 21 20 20 19 20 20 21 20 19 17 17 17 17 16 16 17 17 17 17 17 16 15 14 14 14 13 13 12 12 12 11 11 11 10 10 10 10 10 10
16 15 15 12 7 3 0 1 1 3 1 2 2 2 2 3 3 11 14 14 14 15 14 13 14 12 13 13 11 10 7 7 11 10 9 21 19 20 28 26 28 27 26 26 24 24 24 22 21 21 22 23 21 21 20 20 23 23 21 20 20 20 20 20 19 19 17 17 16 16 16 16 16 16 16 16 16 16 15 14 14 14 13 12 12 11 11 11 11 10 10 9 9 9 9 9 9
18 17 18 13 3 1 0 1 1 1 1 2 1 3 4 5 9 13 15 14 14 13 12 12 11 9 13 16 9 9 8 5 10 10 8 16 19 26 27 25 27 26 26 25 24 25 24 23 22 21 22 22 22 21 21 21 24 24 22 21 20 19 20 20 18 17 16 16 15 15 15 15 15 15 15 15 16 15 14 14 13 13 12 12 11 11 11 10 10 9 9 8 8 7 7 8 8
18 17 18 12 2 1 1 2 1 0 2 3 1 3 4 8 10 11 14 15 13 12 12 9 9 9 12 11 5 5 7 7 9 11 11 17 26 31 27 26 27 25 25 23 24 25 23 24 22 21 22 22 22 22 22 22 23 24 23 22 21 18 19 19 17 16 15 15 15 14 14 14 14 14 15 15 15 14 13 12 12 12 11 11 10 10 10 9 9 9 8 8 7 6 6 7 8
16 12 13 9 1 1 1 0 2 4 5 4 2 2 5 9 11 14 15 14 14 15 14 11 12 12 11 9 7 5 8 9 10 13 17 23 29 31 28 28 27 25 26 24 25 25 24 24 23 22 21 22 22 22 23 23 23 23 22 21 21 19 18 18 16 16 15 15 14 14 14 14 13 13 14 14 14 13 12 12 11 11 10 10 10 9 9 8 8 8 7 7 6 6 6 6 7
16 6 5 5 2 1 1 2 4 4 3 3 3 4 7 9 12 15 14 14 14 14 13 12 13 12 10 7 7 10 13 12 12 16 22 28 31 30 28 28 27 26 25 25 26 25 24 23 23 23 21 21 22 23 23 23 23 22 21 20 20 18 16 16 16 15 14 14 14 13 13 13 13 13 13 14 13 12 11 11 11 10 10 9 9 8 7 7 7 7 7 6 6 5 6 6 6
16 4 1 3 2 2 2 3 6 4 4 5 3 8 7 9 11 11 13 13 12 12 14 13 13 13 10 7 6 11 17 16 18 23 29 31 30 29 28 29 28 26 25 26 26 26 24 23 24 23 22 21 21 23 22 23 22 21 21 19 19 18 16 16 15 15 14 14 13 12 12 12 12 12 12 12 12 11 11 11 10 9 8 8 7 7 6 6 6 6 5 5 4 4 4 5 5
12 5 1 2 2 3 3 4 6 4 5 5 4 8 7 9 9 10 14 13 12 12 15 12 11 14 11 11 10 10 17 21 25 28 30 30 29 29 28 28 27 27 26 26 27 26 24 24 23 22 21 20 21 22 22 22 21 21 20 19 19 18 16 15 15 14 14 13 12 12 11 11 11 11 11 11 10 10 10 10 9 8 8 7 6 6 5 5 5 5 4 4 3 3 3 4 4
7 5 1 1 3 3 5 5 4 5 5 6 5 7 8 9 8 11 14 15 15 14 15 13 13 17 13 13 10 8 16 23 27 26 28 29 29 28 27 27 26 28 28 28 29 27 24 23 22 21 20 20 20 21 21 21 20 20 19 19 18 18 17 16 15 14 14 13 12 11 11 10 10 10 10 10 9 9 9 8 8 7 7 7 6 5 5 5 5 4 3 3 3 3 3 3 3
2 3 1 1 2 2 4 5 2 7 7 6 6 6 7 9 9 12 15 15 16 16 17 15 14 16 14 11 6 11 21 23 25 26 27 27 27 27 27 26 25 27 31 32 30 27 25 23 21 20 21 21 20 20 20 20 20 19 18 18 18 17 17 16 15 14 14 13 12 11 10 10 9 9 9 8 8 8 7 6 6 6 7 6 6 5 5 5 4 4 3 2 2 2 2 3 3
2 3 2 1 3 3 4 4 1 6 9 7 7 6 6 10 11 12 15 16 17 17 14 12 12 12 13 9 3 13 22 21 24 26 27 27 27 28 26 25 25 27 31 33 30 28 26 24 21 20 20 21 21 20 20 19 19 19 18 18 18 17 17 16 15 14 14 12 11 10 9 9 8 8 8 7 7 7 5 4 4 5 6 6 5 5 4 4 4 3 3 3 3 2 2 3 3
2 4 1 2 4 4 5 5 5 3 6 5 5 7 7 10 10 11 14 16 17 15 13 14 15 12 11 8 4 11 18 20 24 25 26 27 28 28 26 25 26 27 29 31 30 28 27 25 22 21 21 21 22 21 20 20 18 18 18 18 18 17 16 16 15 14 13 12 11 10 9 8 7 7 7 6 6 6 4 3 3 4 5 5 5 4 4 4 4 3 2 3 4 4 4 4 5
3 2 2 1 4 4 3 3 4 4 2 5 5 7 8 8 10 10 12 15 15 14 16 18 16 14 11 9 5 6 14 23 24 24 26 26 28 28 26 26 27 27 27 29 29 28 27 25 24 22 21 22 22 22 21 21 20 19 19 18 18 17 16 15 15 14 12 11 10 9 8 7 6 6 6 6 5 5 3 1 3 3 3 5 5 5 4 4 4 3 2 2 4 4 5 5 6
5 2 3 1 4 3 1 1 1 3 1 5 5 7 8 8 10 11 12 13 13 14 16 18 15 11 11 11 8 8 18 26 26 26 27 27 27 28 28 27 27 27 26 27 28 28 26 25 25 23 23 23 23 24 23 21 20 20 19 18 17 16 16 15 14 13 11 10 9 8 7 6 6 6 6 6 5 4 2 2 2 3 3 5 6 6 5 5 4 4 3 3 3 3 4 5 6
3 3 3 0 3 3 2 1 4 2 4 4 4 5 7 8 9 9 13 13 13 15 13 13 12 11 13 12 14 19 26 28 27 28 28 28 29 28 27 26 26 25 25 27 27 27 26 26 26 24 25 24 24 24 23 22 21 19 19 18 17 16 15 15 14 12 11 9 8 8 7 6 6 6 6 5 5 3 2 1 1 2 3 4 5 6 5 5 4 4 3 3 3 3 2 3 4
2 2 2 1 3 3 3 0 3 2 4 3 6 7 7 8 9 8 12 14 14 15 12 12 11 14 16 15 23 30 30 28 27 28 27 28 29 26 25 25 25 23 23 25 25 25 25 26 27 26 25 25 25 24 23 22 21 19 18 18 17 16 15 14 13 11 11 10 9 8 7 7 6 6 6 6 5 3 2 0 1 2 2 3 4 5 5 4 4 4 3 2 2 2 2 2 2
2 3 2 2 3 3 2 2 3 5 5 4 6 8 9 8 9 8 10 14 15 14 12 14 16 17 19 24 31 32 30 29 27 25 23 24 25 23 23 23 24 23 23 23 23 24 25 26 26 26 26 25 25 24 23 23 21 20 19 18 17 16 15 13 12 12 11 10 10 8 8 8 7 6 6 6 5 3 2 1 1 2 1 2 2 3 4 3 4 3 3 3 2 2 3 3 2
4 3 2 3 4 6 5 4 4 7 7 5 8 8 9 8 9 7 9 14 14 13 13 17 19 19 21 27 31 31 31 28 26 25 22 21 21 21 21 22 23 24 25 24 24 24 25 27 27 27 27 25 25 25 24 24 22 20 19 18 17 16 14 13 13 12 11 11 10 9 9 8 6 6 6 6 6 5 2 1 0 1 1 1 1 2 3 2 2 3 3 3 3 2 2 3 4
5 5 2 5 7 7 9 6 8 8 7 5 8 9 9 8 8 7 9 13 12 11 14 17 19 21 22 23 27 30 29 27 26 26 23 21 20 21 21 22 23 24 25 26 27 26 26 28 27 28 27 26 25 25 24 23 22 20 19 18 17 16 15 14 13 12 11 10 10 10 10 9 7 6 7 7 7 6 3 2 1 0 1 1 1 1 2 3 3 3 3 3 3 3 3 4 5
5 7 6 7 8 4 9 11 7 6 5 4 7 8 10 8 7 8 11 11 9 11 16 19 21 23 24 23 25 27 26 26 26 25 24 23 21 21 21 22 23 24 26 26 27 27 27 28 28 27 27 26 25 24 24 23 22 20 19 18 17 16 16 15 14 13 12 11 11 11 10 10 9 8 7 8 8 7 5 3 2 1 1 2 2 2 3 5 5 4 3 3 3 4 4 4 4
6 9 10 11 8 1 7 12 5 6 3 3 7 6 9 7 6 10 13 10 7 13 19 21 22 22 24 24 23 24 22 22 23 23 24 24 23 22 22 22 23 24 25 26 27 28 28 28 28 28 27 26 24 24 23 22 22 20 19 18 17 17 16 15 14 14 13 13 12 11 11 10 10 9 7 8 7 7 6 5 3 2 1 2 3 4 5 5 4 4 4 3 3 4 3 3 3
6 6 11 13 7 1 6 11 10 9 7 6 8 7 9 7 6 10 13 11 12 19 22 22 21 21 24 24 23 22 21 20 21 23 25 25 25 24 24 24 23 25 25 26 27 27 28 28 28 28 28 26 24 23 22 22 22 20 19 19 18 17 16 16 16 15 14 14 13 12 12 11 10 10 8 8 7 7 7 5 3 3 2 2 4 3 4 4 5 4 3 3 4 4 4 4 4
10 4 11 13 9 8 8 11 14 14 10 6 8 7 9 7 5 6 8 12 19 23 23 21 20 21 22 21 21 21 21 21 23 26 27 27 27 27 27 26 25 26 25 26 26 27 28 28 28 29 28 26 25 23 21 23 23 20 19 19 18 18 17 17 17 15 15 15 14 13 13 11 11 11 9 8 8 8 7 6 4 3 2 2 4 2 2 4 5 4 3 4 4 4 5 5 3
11 7 11 12 12 11 8 9 12 14 9 7 8 5 9 8 5 7 11 18 22 22 22 22 20 20 20 18 20 19 19 20 23 27 27 26 29 29 28 27 27 27 26 27 27 27 28 29 29 29 29 28 26 24 22 22 22 21 20 20 19 19 18 17 17 16 15 15 15 14 13 11 10 10 9 8 9 9 7 6 5 3 3 4 4 2 2 4 4 2 3 4 3 3 5 3 1
9 10 9 9 10 10 7 8 11 12 8 8 8 6 8 8 6 8 14 20 21 22 22 21 20 19 18 17 18 17 18 19 21 25 26 27 29 29 29 29 29 28 27 29 28 28 29 29 29 30 30 28 26 25 24 22 22 22 22 22 21 20 19 18 18 17 15 15 15 14 13 11 10 10 10 10 10 9 8 7 5 4 4 5 4 2 4 5 4 3 4 4 3 4 3 1 2
9 13 9 7 7 10 8 9 11 12 10 10 9 7 9 7 5 6 13 20 21 22 21 19 19 18 17 16 16 15 16 18 22 24 23 24 26 28 29 29 30 29 29 29 28 29 29 30 30 29 29 28 27 27 25 23 22 22 22 22 21 21 21 20 18 17 16 15 15 15 13 12 10 9 10 11 10 10 9 8 6 5 5 5 4 3 4 6 6 4 4 4 4 3 1 1 1
13 14 13 12 6 9 9 8 9 10 11 13 9 8 9 5 3 7 14 19 20 21 20 19 17 16 17 16 14 13 13 18 24 22 20 21 23 27 28 29 30 30 31 30 29 30 30 31 30 30 30 28 27 27 26 24 22 22 22 21 21 20 20 20 18 17 17 15 15 16 14 12 11 9 9 11 11 10 9 7 6 5 5 4 3 3 5 6 5 4 3 4 4 0 2 2 2
13 13 11 12 10 7 9 9 9 10 10 13 10 7 7 3 4 11 17 18 20 20 18 17 16 14 15 15 12 11 11 16 21 19 20 22 24 27 28 30 30 30 32 30 30 31 30 30 29 30 30 28 28 26 25 25 22 21 21 22 21 20 20 19 17 16 16 15 15 16 14 13 13 12 11 11 10 8 7 7 6 5 4 4 4 4 4 4 2 2 2 2 1 0 1 3 3
11 11 8 7 9 8 7 8 9 11 10 14 12 4 6 6 7 14 16 18 20 18 17 15 14 13 13 12 11 12 11 13 17 19 23 24 24 27 26 30 31 29 31 31 32 32 30 29 29 30 31 30 28 25 25 25 23 21 22 22 21 20 19 18 16 15 15 14 14 16 16 15 16 15 13 12 11 9 7 7 7 6 4 4 5 4 3 2 2 2 1 1 1 2 3 2 2
8 9 6 4 3 5 5 8 8 9 10 15 14 4 6 6 8 16 14 18 20 16 16 15 13 13 11 11 12 13 10 12 19 22 26 27 26 26 27 30 30 29 31 32 34 33 30 30 28 29 31 31 28 26 25 24 24 22 22 23 20 20 19 17 16 14 14 15 15 17 18 17 15 14 13 11 11 10 8 8 8 6 6 6 5 3 4 4 4 3 2 2 0 2 1 0 3
6 6 5 3 2 5 5 8 8 7 9 14 13 5 6 5 7 16 13 15 20 16 15 14 14 14 12 11 13 13 10 12 19 23 26 29 29 28 30 32 31 31 31 31 34 33 31 31 29 29 31 32 28 26 25 23 24 22 21 22 20 20 19 17 17 16 14 15 16 17 16 14 12 12 11 11 10 10 9 8 7 6 6 5 3 4 5 5 6 5 3 3 1 2 2 3 6
6 5 5 3 5 6 4 6 8 9 10 11 11 5 5 5 6 14 13 15 19 15 15 15 14 15 13 11 12 12 9 11 14 19 25 28 30 30 32 36 34 34 34 32 33 32 32 32 31 30 32 33 30 27 27 24 24 22 21 21 19 19 19 16 18 17 15 15 15 16 14 12 12 11 10 10 9 8 9 9 7 6 6 5 5 7 5 3 6 7 5 2 1 1 2 5 6
5 4 5 7 7 7 5 7 7 11 11 8 9 6 6 8 10 14 13 14 17 15 15 16 14 13 12 11 12 12 10 11 10 15 25 28 30 30 30 36 36 36 37 34 34 34 33 33 33 33 32 33 31 27 28 26 24 23 21 21 19 19 18 16 16 17 16 16 16 16 15 14 13 11 10 10 9 8 9 8 7 7 6 5 6 6 3 3 7 7 4 1 0 1 2 4 5
7 6 5 7 7 7 6 7 7 12 12 8 9 6 6 10 10 14 15 13 14 14 15 15 14 14 13 12 12 12 11 13 11 16 25 28 31 30 29 34 36 37 38 35 36 35 34 34 34 34 33 33 31 27 28 27 24 23 22 21 20 19 20 17 15 16 17 17 18 17 17 16 14 12 11 11 10 9 8 7 8 8 7 7 5 3 3 6 8 6 4 2 1 1 1 2 4
12 11 8 7 7 8 6 6 8 12 9 8 11 7 7 9 7 10 14 13 12 13 14 13 13 14 14 12 12 12 12 13 13 18 25 27 31 32 30 32 34 37 38 34 36 35 31 34 36 36 35 35 32 28 28 28 25 24 22 22 21 19 20 20 16 15 17 18 18 18 18 16 15 13 12 12 11 9 9 7 9 8 8 7 4 4 6 6 4 3 2 1 1 2 1 2 2
14 13 11 9 8 8 7 6 9 13 8 6 11 9 8 9 8 11 13 13 12 12 14 13 13 14 14 13 13 14 13 13 16 20 23 25 30 32 30 31 31 33 37 35 36 34 31 33 36 36 36 36 34 31 30 29 27 25 24 23 23 21 20 21 19 15 16 17 17 18 18 16 15 13 13 13 11 11 10 9 10 9 8 8 7 6 5 3 2 3 4 3 2 2 4 2 2
14 12 11 8 7 8 8 9 11 14 8 6 10 10 8 9 10 11 12 13 13 12 14 13 14 15 14 14 15 15 13 12 15 16 19 23 28 30 30 31 31 31 35 36 36 35 31 31 34 36 37 37 36 34 32 31 29 28 27 25 24 23 22 21 21 19 16 15 16 16 16 15 15 14 13 13 12 12 12 11 11 10 10 11 9 6 4 2 3 5 4 2 2 2 3 2 3
12 10 9 8 7 7 7 10 14 14 8 6 10 10 8 9 10 9 9 10 11 12 14 13 14 14 14 15 14 15 14 12 15 15 16 21 26 29 29 29 32 31 32 35 36 36 33 31 33 36 37 37 37 35 34 33 30 29 28 26 25 23 23 22 20 19 17 15 16 16 15 15 14 14 14 14 13 13 14 14 12 10 10 10 8 6 4 4 4 5 4 2 2 1 1 1 3
11 9 8 7 9 8 5 8 12 12 9 8 9 7 6 7 9 9 8 7 7 11 14 13 14 14 15 16 14 15 16 14 16 17 15 18 24 28 28 28 31 31 30 33 36 37 34 33 34 35 36 36 36 36 34 33 30 28 27 25 24 21 21 21 19 18 18 16 17 17 16 15 14 13 14 16 16 14 14 15 14 12 10 9 8 7 6 5 4 5 5 3 1 1 1 3 3
12 14 11 8 11 11 8 5 7 6 8 10 8 5 4 6 9 9 9 9 8 9 13 13 13 13 14 16 15 15 17 16 16 18 16 16 19 24 28 30 31 31 31 33 36 39 37 36 36 35 35 34 35 36 34 32 28 27 25 22 22 20 18 21 21 19 20 19 18 19 17 15 15 14 14 17 17 16 15 14 14 13 11 9 8 8 8 7 5 5 5 3 2 2 3 6 4
10 14 15 14 14 13 12 8 7 5 5 8 8 5 4 6 11 10 10 12 11 8 11 12 12 13 13 14 14 14 16 15 16 18 18 16 18 23 28 31 31 31 33 35 37 40 38 37 36 36 35 33 34 35 34 33 30 28 27 25 25 23 21 24 25 23 22 22 20 20 19 17 17 15 14 17 18 17 16 14 15 15 11 9 8 8 9 8 6 5 5 5 4 2 3 5 4
7 10 15 19 18 16 16 12 7 5 5 9 10 6 3 5 9 10 11 14 14 11 12 13 12 12 13 13 14 14 14 14 15 17 18 17 18 21 25 30 33 32 34 36 36 37 37 36 36 37 37 34 33 35 35 34 32 30 30 29 28 27 25 25 27 26 23 22 21 21 21 20 19 17 16 16 18 18 17 16 16 14 11 11 9 9 10 9 7 6 7 8 6 5 3 4 5
8 9 13 17 19 18 18 15 8 4 5 9 12 9 4 4 7 8 12 14 15 15 13 12 13 13 14 13 14 15 15 14 14 15 18 18 18 20 25 31 35 35 35 35 34 35 37 37 36 37 38 36 34 34 35 35 34 33 32 30 28 29 28 26 26 26 23 22 20 21 24 23 20 19 19 17 18 18 18 18 16 13 14 14 10 9 11 9 7 7 9 9 6 5 6 4 6
9 10 12 13 15 16 16 13 9 5 4 5 10 11 5 4 6 6 11 13 14 15 13 12 13 15 15 14 15 16 16 16 15 15 17 18 19 23 30 33 35 36 36 37 37 36 37 38 37 35 36 37 35 34 35 36 36 34 33 31 29 28 29 27 25 24 23 22 22 22 23 24 23 22 21 20 20 19 18 20 18 14 15 14 9 10 12 9 8 10 10 8 6 6 7 5 5
10 11 12 12 12 12 13 11 8 6 5 5 10 12 6 3 5 6 8 10 12 13 12 11 12 14 15 15 15 16 15 15 15 16 16 18 22 27 31 34 34 35 37 39 39 37 37 38 37 36 36 37 37 36 36 37 36 35 33 32 30 29 28 27 25 24 24 23 24 24 24 26 25 23 22 22 21 20 19 21 20 16 16 13 10 12 14 11 11 11 8 7 7 7 8 6 5
10 10 11 11 11 9 7 7 6 6 5 6 11 14 9 4 6 7 7 8 12 12 11 12 12 13 14 14 14 15 14 13 14 16 15 18 25 29 30 33 34 34 36 37 37 37 37 38 38 37 36 37 38 38 38 38 37 36 35 34 33 31 29 28 26 26 26 25 24 24 26 28 28 25 24 24 22 21 21 22 21 19 17 14 12 14 15 13 14 12 10 9 9 8 8 8 6
10 8 8 8 7 5 5 3 4 6 5 6 12 16 14 7 5 7 8 9 13 14 13 15 16 15 15 14 14 14 15 14 14 15 15 15 19 23 26 30 33 34 34 36 37 37 37 38 39 38 36 36 37 38 39 39 38 37 36 36 35 34 31 29 29 29 29 27 25 25 29 30 28 26 26 25 23 23 24 24 21 20 19 16 15 16 15 14 14 14 13 12 12 11 9 10 9
9 7 6 6 5 4 5 4 3 5 5 6 11 13 12 8 7 11 12 11 13 15 16 17 19 18 16 15 15 13 13 14 14 14 15 14 14 17 20 26 31 32 33 36 37 37 37 38 39 39 37 37 37 38 39 39 39 38 37 37 36 35 33 31 31 31 31 30 28 28 31 31 29 28 27 25 25 25 27 25 22 20 19 18 18 17 16 15 14 15 16 15 15 14 11 11 11
10 8 6 6 5 5 6 5 3 4 5 8 12 11 8 5 7 13 17 15 14 16 17 19 20 20 18 17 16 14 14 14 14 14 14 15 15 15 19 25 30 32 33 36 36 37 36 37 39 39 38 39 38 38 38 39 39 39 38 38 37 36 34 33 32 32 32 32 31 30 30 31 32 31 29 27 28 28 27 25 23 21 19 18 20 19 18 18 14 14 18 18 16 14 13 13 12
9 9 7 6 5 5 5 4 4 4 5 7 10 9 6 5 8 15 19 17 15 13 14 17 19 20 19 18 17 16 15 14 13 14 14 16 17 17 20 25 30 33 35 35 36 37 36 36 39 39 39 40 39 38 38 39 39 39 38 38 38 36 35 34 34 33 33 34 33 32 31 31 32 31 29 29 31 30 28 26 24 22 20 19 20 20 19 19 16 14 18 19 16 14 14 14 13
6 6 6 7 6 5 4 4 4 4 3 5 6 5 5 5 8 15 17 15 14 11 11 13 15 17 17 16 16 15 13 13 13 14 14 16 17 17 21 26 29 33 35 35 36 37 37 37 39 40 40 40 40 40 39 39 39 39 39 39 38 37 35 35 35 34 33 34 35 34 33 33 32 30 29 30 32 30 29 29 26 23 22 21 21 21 20 20 18 16 19 20 17 15 16 15 14
4 7 9 9 7 5 3 4 5 3 4 4 4 4 3 3 5 11 15 16 15 12 11 12 12 17 18 15 14 14 13 13 13 14 14 15 16 17 21 26 29 32 34 36 38 39 39 39 39 40 40 40 41 41 40 40 39 39 39 40 39 37 37 36 36 34 33 34 35 35 34 34 33 32 31 31 31 31 31 31 28 25 24 23 23 23 22 21 21 19 20 20 18 17 17 16 15
5 7 9 6 5 4 2 3 4 4 5 3 4 6 4 4 4 8 15 17 15 13 13 13 13 16 18 16 15 15 15 15 14 14 14 15 16 17 21 26 30 34 36 38 39 40 40 39 40 40 40 40 42 42 41 40 39 39 39 40 39 38 38 37 36 35 33 33 35 35 34 33 34 33 33 32 31 31 33 32 28 26 26 25 24 25 24 23 23 23 22 21 18 18 18 18 17
10 5 4 5 5 6 4 3 4 5 5 4 5 6 4 5 4 7 13 14 14 14 14 14 15 17 17 16 17 17 16 14 14 14 13 13 15 17 21 26 30 34 37 37 38 38 38 39 40 42 42 43 43 41 40 39 39 39 39 41 41 39 38 38 36 35 34 34 35 35 34 34 34 34 34 34 32 32 33 33 30 27 27 27 26 27 26 25 25 25 24 23 21 20 19 19 19
10 7 5 4 4 5 6 5 3 4 4 4 5 5 4 5 5 9 13 13 14 15 15 15 16 18 18 16 16 16 15 14 14 15 14 15 17 18 24 28 29 32 34 35 36 37 37 38 39 41 42 42 41 40 39 38 39 40 39 40 41 39 38 38 37 36 35 35 35 35 35 34 34 35 35 36 34 34 34 33 32 30 29 29 29 29 29 28 27 26 25 25 23 23 21 19 20
8 8 9 7 4 3 5 5 5 4 3 3 4 5 5 5 5 10 12 14 16 16 16 15 15 17 18 18 18 16 15 16 16 16 15 16 17 18 25 30 30 31 32 34 36 36 36 37 38 40 40 40 40 40 40 39 40 40 39 40 40 40 39 38 37 37 37 35 35 36 36 35 35 35 36 37 37 36 35 34 33 32 31 31 31 31 31 30 29 27 26 25 24 24 23 20 20
10 9 11 10 5 4 4 5 6 7 6 5 4 3 6 6 5 7 10 13 14 14 14 14 14 16 16 18 21 19 17 18 17 16 15 15 15 16 21 26 28 30 32 35 36 35 36 36 37 38 39 40 40 40 40 40 40 40 40 41 40 40 39 38 37 37 37 36 35 36 36 36 36 36 36 38 39 38 37 36 35 35 34 33 33 33 32 31 31 29 28 26 25 25 25 23 22
Wind_Direction
169 165 166 152 154 181 181 165 293 325 86 349 64 82 99 141 204 243 252 102 80 81 87 98 101 92 99 104 108 76 40 43 172 139 123 138 146 151 153 151 147 144 145 144 143 143 141 140 140 139 141 143 142 143 140 136 133 130 130 131 130 126 121 118 114 111 110 112 112 112 112 112 111 110 108 108 109 107 103 100 100 99 96 94 93 91 90 88 85 82 81 80 81 80 75 71 72
168 165 163 154 164 197 191 153 332 348 357 6 334 229 144 169 213 150 93 87 96 101 93 91 92 97 106 104 91 70 46 29 66 90 102 132 140 147 148 148 147 147 147 145 146 144 141 140 141 141 143 145 145 143 138 136 134 132 133 134 133 129 123 117 112 111 112 114 114 115 114 114 113 111 110 110 110 107 104 103 102 99 96 95 93 92 90 88 84 80 80 79 78 79 75 69 71
166 162 163 168 181 200 182 162 14 346 355 350 301 265 180 170 135 100 94 89 103 113 103 95 89 92 95 81 59 69 74 39 77 88 112 134 137 148 149 147 146 147 147 146 147 145 142 141 142 142 144 147 146 143 140 139 137 135 135 136 136 132 124 117 113 113 115 117 117 118 117 116 114 113 112 112 110 107 104 103 102 98 95 93 91 89 85 84 82 79 78 77 73 75 71 65 68
165 164 172 178 178 99 48 355 360 6 334 281 292 238 227 110 94 96 103 97 96 104 98 93 84 78 80 86 84 80 94 69 84 94 122 142 144 148 149 147 146 146 146 148 147 145 143 142 142 142 146 148 149 146 144 144 142 141 139 139 136 131 124 119 117 118 119 120 121 122 122 119 116 115 114 113 109 106 105 103 100 96 94 91 89 85 81 80 77 76 75 72 71 71 65 61 65
173 178 185 183 118 122 131 4 319 252 229 231 137 229 208 115 111 105 106 106 102 98 94 92 86 81 73 83 105 88 107 107 100 107 121 140 144 146 150 148 145 146 148 149 149 148 146 146 143 143 146 149 151 149 148 149 145 143 142 140 136 132 127 122 123 123 123 124 126 127 125 121 118 117 116 112 108 106 105 101 98 97 94 90 86 82 78 75 72 72 71 69 68 66 57 53 57
191 206 212 211 231 227 141 128 243 246 229 206 205 213 148 123 117 106 105 108 103 99 98 93 94 92 77 72 73 96 130 119 114 122 126 137 146 149 151 149 146 147 149 151 152 151 149 150 146 144 147 149 152 149 149 149 144 143 142 141 138 134 130 127 128 128 129 130 130 130 126 123 121 119 115 110 107 106 105 100 97 95 93 90 84 81 77 72 69 68 69 65 61 59 52 46 52
193 216 228 228 258 238 155 231 247 247 220 220 212 135 124 123 116 116 117 110 99 101 103 103 108 97 81 84 76 94 113 115 122 130 135 141 147 149 149 147 145 145 149 152 153 151 150 150 148 146 148 150 151 150 150 149 147 146 145 143 139 134 132 131 134 134 135 136 135 132 128 124 121 118 113 108 107 106 103 99 95 94 93 90 84 82 77 71 66 65 65 62 58 54 49 44 53
196 209 160 188 242 233 192 239 250 233 167 206 171 121 134 121 113 118 117 109 105 108 103 107 108 91 81 89 86 96 104 113 122 130 138 141 143 146 148 146 142 142 147 153 153 150 150 151 150 149 150 152 152 152 152 151 152 150 148 147 141 136 136 137 139 141 140 139 137 133 129 125 121 116 110 108 109 106 101 98 97 97 96 93 89 84 75 68 60 57 56 54 51 42 39 37 48
208 224 268 201 227 267 254 252 227 194 148 164 114 119 123 102 110 118 115 111 109 106 102 110 104 95 98 95 93 97 103 117 124 130 138 139 141 142 145 145 141 143 146 152 152 149 151 152 152 151 151 152 152 154 153 152 154 154 151 148 144 140 141 143 144 146 144 142 138 135 132 127 121 114 110 110 110 107 102 100 99 97 94 90 86 81 72 64 54 47 42 36 27 21 17 17 32
205 211 216 279 236 274 289 287 191 135 116 130 114 125 113 113 134 115 111 114 111 104 102 104 96 104 115 104 98 110 116 125 127 130 137 139 139 139 142 144 143 146 148 151 152 150 150 151 150 152 152 152 154 156 155 153 154 156 153 148 145 143 144 148 148 149 147 144 141 138 135 128 120 113 111 113 113 110 106 103 99 93 84 74 66 66 63 57 49 36 30 26 4 359 6 3 19
186 222 131 335 269 279 293 307 160 124 119 128 125 125 116 128 125 106 108 110 109 108 112 105 98 111 113 100 91 123 128 130 130 134 139 139 137 137 140 142 142 147 149 150 151 150 149 150 150 152 154 154 155 156 157 154 154 155 152 147 145 146 148 151 151 152 149 147 145 141 137 128 119 115 115 118 119 116 114 108 98 86 72 58 50 48 49 50 38 26 16 10 360 347 358 359 18
162 231 133 296 287 298 299 313 293 127 130 134 135 130 117 120 119 126 120 115 121 122 126 116 116 119 106 100 113 134 133 135 136 138 141 139 137 137 139 139 140 145 147 149 151 150 150 152 151 151 154 155 155 156 157 154 153 151 148 147 148 152 154 154 155 155 152 151 149 144 140 131 122 121 122 125 127 124 123 113 91 79 68 55 47 40 36 34 21 24 5 355 11 360 7 18 29
190 227 143 278 285 308 319 330 335 72 123 124 123 125 123 129 135 139 125 129 134 126 126 123 129 123 109 116 130 140 139 140 139 139 141 139 137 137 137 138 139 142 144 148 151 151 153 153 151 151 152 154 156 156 157 155 154 152 151 152 154 156 157 158 159 157 155 154 152 148 143 135 130 129 131 136 136 135 135 113 81 70 61 47 44 39 27 19 14 20 358 1 25 29 42 54 53
202 212 120 271 290 302 327 349 343 353 82 106 121 138 138 136 135 132 127 134 129 126 133 132 131 113 116 131 127 151 142 142 142 139 140 136 135 136 137 138 140 142 144 149 152 152 154 154 152 152 153 154 156 157 158 158 158 157 156 157 158 159 159 161 161 159 158 157 155 151 148 143 139 140 144 150 150 151 154 123 79 64 46 35 39 42 33 22 18 17 12 23 24 39 70 78 73
203 93 105 248 298 314 313 134 66 307 245 142 165 154 134 125 130 129 127 128 125 137 138 136 134 116 144 154 144 159 144 143 143 140 139 135 134 134 136 138 140 143 146 149 152 153 155 156 155 155 157 157 157 160 161 162 162 161 160 161 162 163 163 163 163 163 161 160 159 156 155 152 150 153 159 166 166 170 177 136 90 55 33 34 39 42 45 40 32 24 21 28 23 44 79 82 78
167 97 91 48 296 315 269 205 67 298 258 146 131 114 114 120 123 123 126 127 128 140 140 145 149 132 152 155 141 148 145 143 143 143 142 136 133 133 136 136 138 142 146 150 152 155 158 160 161 161 160 159 160 162 164 165 165 164 164 164 164 165 165 165 166 164 163 164 164 164 162 159 163 167 172 179 177 190 217 141 70 36 29 37 46 47 55 56 42 35 33 26 20 32 52 63 67
118 94 90 68 263 282 265 228 85 237 254 120 117 113 109 106 104 107 125 128 130 142 146 150 144 130 143 147 142 144 142 142 143 143 140 135 135 136 137 137 139 141 145 150 152 155 159 163 164 164 164 162 165 166 166 167 166 167 167 165 166 167 167 167 166 165 167 169 170 170 168 169 174 176 181 187 188 206 232 293 17 17 21 44 64 62 66 58 36 39 46 28 10 4 356 15 36
148 95 142 192 232 241 233 249 172 196 232 170 151 134 119 115 120 124 132 132 136 145 142 136 130 127 135 138 140 141 139 142 145 141 137 137 139 141 142 143 143 144 148 150 153 157 160 163 164 165 166 167 169 168 168 166 167 169 168 166 168 169 170 169 169 170 172 173 175 175 174 176 175 178 181 188 207 230 236 261 11 19 20 70 83 66 69 54 27 35 36 14 355 331 341 351 349
199 118 178 226 227 206 179 242 217 186 229 186 144 138 129 130 137 146 148 141 146 146 136 130 126 128 132 132 137 141 142 144 146 143 142 143 145 144 144 147 148 149 152 153 156 161 163 164 164 165 164 167 171 170 169 169 169 170 169 169 170 171 172 174 174 174 176 177 178 178 176 175 177 185 184 189 212 231 237 246 299 8 14 88 89 46 57 54 24 25 26 16 360 335 346 344 337
194 135 190 240 233 203 163 225 247 186 205 179 141 141 133 141 152 162 155 146 151 139 129 131 131 138 137 134 140 145 146 147 149 149 148 148 148 147 148 150 151 154 155 155 158 163 165 164 165 165 164 167 171 171 172 172 173 172 173 173 173 173 176 178 176 176 179 180 181 181 177 174 190 202 194 198 211 223 238 242 249 291 40 29 26 3 34 43 20 14 44 34 13 9 351 332 322
184 164 190 224 235 222 166 204 237 166 190 182 146 136 131 156 170 162 155 150 150 130 131 138 140 145 141 140 146 148 149 150 153 154 151 152 152 151 153 153 154 156 156 156 158 162 166 165 166 166 165 169 172 174 175 176 175 175 176 177 177 177 180 179 176 179 183 185 186 185 181 181 198 204 197 205 213 222 239 247 260 294 31 13 13 13 22 24 5 3 43 42 14 11 344 320 312
210 191 183 205 226 301 174 188 152 100 217 188 146 146 129 151 174 162 161 160 152 136 138 142 145 148 146 147 149 150 152 153 157 158 155 157 156 154 156 156 155 156 157 159 161 164 168 167 168 167 168 172 174 177 178 178 177 178 179 179 181 181 183 181 180 186 188 190 190 190 190 193 202 202 200 207 210 216 234 249 260 271 313 349 350 2 9 6 349 348 18 28 14 9 334 299 303
244 202 180 202 206 208 187 171 143 140 205 193 150 148 128 156 192 173 174 163 139 135 139 143 147 149 149 150 151 155 157 158 161 160 159 161 159 157 158 159 159 159 162 164 164 167 170 170 172 172 172 174 176 179 180 180 180 180 181 182 185 185 186 186 187 192 193 195 194 193 195 201 206 201 200 206 208 213 226 241 249 245 266 323 319 341 358 347 335 338 356 11 20 15 350 324 306
271 225 185 198 182 211 210 168 160 158 184 166 124 135 144 180 198 164 165 138 127 132 137 141 146 149 150 153 156 160 158 161 164 161 163 164 161 161 161 162 163 164 164 167 168 170 173 173 175 176 175 175 176 179 182 184 182 181 183 185 188 188 190 191 191 194 196 199 196 195 197 202 208 203 204 207 207 216 226 230 218 210 224 263 281 314 314 309 323 332 346 3 30 19 350 346 310
263 236 197 197 183 203 204 170 159 152 167 134 120 161 162 172 165 128 118 116 124 132 135 140 146 151 154 159 161 160 159 164 165 162 165 165 162 162 161 162 164 165 167 169 170 173 176 176 177 178 177 175 176 179 183 186 183 183 188 189 190 191 194 194 194 198 198 199 199 199 200 201 202 205 214 209 201 211 223 226 221 206 216 237 250 278 242 267 312 321 334 351 10 336 328 329 295
253 249 223 206 191 182 181 185 160 153 160 130 146 174 152 156 145 122 116 119 127 131 135 143 149 154 158 164 163 161 163 168 166 163 166 165 164 162 161 162 164 167 169 170 172 173 175 177 179 180 178 176 177 180 183 187 185 186 192 192 193 193 196 196 196 202 199 199 202 200 201 203 199 207 219 213 201 205 210 215 220 213 222 237 240 239 245 272 301 298 313 332 324 315 315 280 275
272 272 277 258 199 164 184 204 170 156 141 140 167 154 137 150 133 127 126 124 127 131 139 146 151 157 161 168 165 163 168 169 166 164 165 166 164 161 162 163 165 168 169 169 173 172 173 177 178 180 180 178 180 181 182 188 189 190 193 193 194 194 198 199 199 204 200 200 203 198 199 201 198 206 215 210 201 197 199 211 223 226 232 244 242 216 237 275 293 289 292 307 316 328 349 133 92
288 288 299 290 241 172 188 205 177 146 137 157 165 129 128 133 131 146 132 129 132 136 145 150 155 159 162 171 166 163 174 168 165 166 168 169 166 162 163 164 165 167 168 170 173 173 174 175 178 182 181 180 183 183 181 186 191 191 191 192 193 195 200 200 201 206 203 202 200 195 196 197 199 202 200 197 196 196 202 219 231 236 238 243 241 217 234 262 279 276 270 291 301 342 92 94 60
285 284 291 289 278 231 195 188 171 137 145 160 140 120 137 155 178 148 134 135 137 140 149 154 158 160 163 170 163 165 178 167 163 168 171 170 167 165 164 165 165 165 168 171 172 173 174 174 178 182 181 181 183 183 183 186 191 191 190 192 193 194 200 200 202 206 202 199 196 194 193 195 202 204 199 192 192 202 214 231 240 244 244 233 229 227 238 250 259 249 235 273 274 146 360 354 338
266 268 262 271 284 262 202 180 161 138 155 151 129 137 173 197 181 143 137 141 140 144 153 156 158 162 166 166 160 170 179 168 167 172 172 169 168 167 163 164 167 166 167 171 172 174 175 175 178 179 181 183 182 183 185 186 190 190 187 192 194 194 199 200 202 204 200 197 195 194 193 199 207 209 210 204 201 204 211 233 242 246 252 232 230 238 241 226 167 178 178 163 162 338 326 331 328
267 271 260 249 285 279 221 193 170 145 163 149 131 146 186 206 165 140 144 144 142 148 153 158 160 162 168 163 160 172 184 175 173 173 170 169 170 169 163 164 168 168 168 171 173 175 176 177 177 178 182 183 183 186 186 186 188 188 185 189 193 193 197 200 202 204 201 197 193 192 195 205 213 213 216 215 213 209 207 229 237 242 247 232 230 225 211 181 154 160 136 135 150 316 266 148 340
279 274 270 249 219 276 257 195 184 155 163 153 137 145 173 202 162 146 153 146 144 151 156 161 162 163 169 162 161 173 185 179 174 173 170 170 173 173 169 169 172 172 172 171 172 176 177 179 178 178 182 182 184 188 186 185 185 187 186 188 193 193 195 198 201 205 200 194 189 190 199 210 214 215 217 215 217 210 202 220 233 242 235 216 195 173 173 162 169 171 134 138 189 294 254 14 8
271 254 250 243 197 233 248 187 185 152 155 161 149 150 156 179 176 154 159 154 149 154 159 162 163 166 167 160 163 172 180 179 177 175 171 171 174 177 174 174 176 175 175 173 173 177 178 179 179 178 182 182 184 186 186 185 185 188 188 190 195 194 194 197 202 205 199 194 192 197 208 214 214 215 214 215 217 204 202 214 221 222 209 189 166 157 154 159 181 169 130 144 213 301 311 4 24
265 254 245 253 218 217 208 178 182 147 147 168 158 161 157 164 176 162 164 162 154 157 160 164 167 164 164 163 165 172 179 181 185 180 177 174 175 179 176 174 177 176 176 178 180 182 182 181 179 179 183 183 184 185 185 184 185 189 188 190 194 192 194 198 202 202 196 197 202 208 215 215 214 213 209 211 209 200 209 211 197 194 188 173 161 158 168 171 174 172 153 142 43 340 309 350 14
246 247 239 252 241 238 208 166 172 154 149 162 162 177 165 158 174 166 165 167 160 163 162 165 168 164 166 165 167 175 179 183 191 186 180 175 175 179 175 171 173 173 175 178 181 183 185 182 178 179 182 183 184 184 183 183 185 188 186 187 192 192 194 197 200 201 198 203 209 214 216 215 215 211 206 205 199 200 209 201 187 185 172 160 149 142 175 165 162 179 198 200 208 236 283 360 4
239 245 236 231 233 245 222 162 163 162 159 162 159 183 175 156 172 166 164 169 168 167 164 167 168 165 169 167 169 175 177 185 192 188 182 176 175 179 177 173 170 170 174 176 177 182 183 179 177 179 180 181 182 182 181 181 185 188 185 185 190 191 194 197 198 200 202 205 210 214 213 214 214 208 203 200 198 197 198 193 185 179 166 158 148 137 150 158 166 182 180 159 180 187 72 24 323
240 248 249 235 226 237 218 173 162 161 169 179 163 178 180 160 169 173 166 168 173 171 168 171 167 165 172 171 170 175 179 182 186 190 185 176 174 177 177 176 173 170 174 176 176 182 184 178 175 177 178 180 181 181 182 183 185 188 186 187 190 191 193 198 200 198 198 202 208 210 211 213 211 206 200 197 197 190 187 189 182 176 176 172 171 172 174 204 221 159 128 94 78 73 66 42 299
242 248 260 257 243 243 215 181 163 160 172 191 172 175 183 171 167 172 170 170 178 177 172 174 170 166 172 175 172 176 179 176 179 189 187 177 174 176 175 175 175 172 174 178 178 181 185 179 174 175 177 179 181 182 183 185 188 188 187 189 192 193 194 198 204 201 198 205 211 209 209 209 205 205 203 196 192 185 183 188 187 182 184 184 180 189 205 192 147 137 126 97 83 65 67 38 342
247 250 258 263 262 266 230 185 165 164 173 183 179 180 187 175 157 155 167 178 183 178 176 175 172 169 171 177 175 173 176 175 176 184 189 181 174 175 175 174 177 176 175 178 179 181 184 181 175 173 176 179 181 183 185 187 190 191 189 190 191 194 196 199 204 203 201 210 213 210 209 205 201 204 204 194 188 189 189 189 188 181 183 189 183 180 175 136 128 142 132 111 128 93 54 41 8
240 247 251 257 257 265 257 192 173 172 168 164 174 181 187 168 155 155 167 190 197 182 180 176 174 174 174 177 175 171 175 176 176 180 187 183 176 175 176 176 178 178 176 177 179 181 183 184 180 176 177 180 182 185 187 187 190 192 192 193 192 194 199 200 203 204 205 209 208 207 206 200 198 200 198 191 186 192 195 188 184 179 183 189 180 173 167 151 142 137 129 130 138 22 46 120 76
227 235 243 254 252 254 264 223 182 172 164 164 158 163 199 168 161 173 174 192 212 193 183 179 178 177 173 177 176 172 174 176 177 179 183 183 179 176 176 178 179 179 179 178 180 182 183 185 185 181 180 181 184 186 188 186 186 189 191 192 192 194 198 198 202 204 205 206 201 200 200 198 198 199 197 189 185 193 194 184 180 179 182 185 182 181 174 168 163 145 149 174 160 56 76 121 121
225 226 232 247 257 256 261 241 186 166 185 181 153 152 238 189 172 182 177 185 199 199 191 187 182 176 172 178 179 175 175 177 177 178 182 183 181 177 176 178 179 181 183 182 183 184 185 185 185 184 182 183 185 186 187 185 184 186 186 186 188 190 193 195 200 201 199 201 199 198 197 197 199 200 197 187 184 193 189 179 182 184 187 187 179 173 172 173 175 177 179 174 164 148 94 111 124
232 220 219 233 250 258 263 256 216 178 196 193 166 160 229 204 188 188 178 182 187 197 204 191 182 178 177 178 180 179 177 177 177 177 182 184 180 177 177 179 180 183 185 185 184 184 185 185 185 187 186 185 186 187 188 186 186 187 187 188 188 190 193 194 199 201 199 199 198 200 199 198 200 197 194 187 186 191 184 180 186 190 193 190 179 173 175 175 178 183 178 170 177 188 162 105 99
231 223 216 221 231 245 258 263 255 213 184 189 178 163 160 202 216 189 170 179 186 196 207 193 179 180 182 181 178 180 180 178 178 178 182 185 183 178 179 181 183 184 184 183 183 184 185 186 187 189 189 189 188 188 189 188 188 189 189 190 191 194 196 196 198 200 199 198 197 200 200 200 199 193 191 188 187 190 183 181 187 190 192 190 191 190 177 170 177 179 173 176 187 193 186 137 91
230 229 233 230 225 230 242 254 261 233 193 198 182 165 159 211 229 186 163 175 189 196 203 197 185 181 183 182 178 180 182 181 180 180 182 185 185 182 181 183 183 183 182 183 184 185 186 187 187 189 190 191 191 190 190 191 191 190 190 192 193 197 200 198 199 198 198 199 197 200 199 197 194 188 189 188 188 192 186 182 185 188 190 190 199 192 174 168 179 178 176 189 198 186 187 164 109
227 228 239 248 243 235 231 236 250 239 218 218 187 168 167 218 208 186 177 183 191 197 201 202 193 182 182 183 181 180 181 181 183 184 182 183 187 185 181 182 182 182 183 184 185 185 185 186 187 189 191 192 192 192 192 192 193 192 191 193 195 198 199 200 198 196 198 199 197 201 200 194 188 185 188 189 191 194 188 184 185 187 190 193 199 182 172 179 190 190 195 205 200 184 184 173 137
223 222 234 249 252 252 242 223 223 238 233 208 189 173 168 211 212 190 191 185 180 189 197 198 194 185 182 185 185 181 180 181 183 186 185 182 185 184 178 180 182 183 183 184 184 184 184 186 187 189 192 193 193 194 193 193 193 194 193 194 196 198 198 198 196 195 197 198 198 200 196 189 184 184 187 189 193 193 188 186 188 190 193 197 196 182 179 194 200 200 201 193 190 188 188 183 164
225 215 219 237 253 268 274 250 208 226 240 209 195 185 180 201 221 192 191 184 176 183 189 190 190 188 186 187 188 183 181 182 181 184 185 179 180 180 177 179 182 181 181 182 183 184 184 185 187 189 192 193 194 194 194 194 193 194 195 196 198 199 198 196 195 196 197 197 198 193 185 182 182 184 187 188 192 192 188 188 190 193 195 196 196 190 192 203 202 199 195 187 190 197 195 190 186
225 222 209 210 229 247 249 254 225 220 235 208 192 193 194 206 206 189 192 194 185 185 188 189 191 191 190 189 189 185 181 184 183 181 184 181 177 178 177 178 181 181 181 182 183 184 184 185 186 188 191 193 194 195 196 195 194 195 195 197 199 200 200 196 195 196 196 197 196 186 179 180 181 183 186 188 191 190 187 190 194 196 197 196 198 196 195 198 198 198 196 192 196 202 200 196 193
213 219 208 191 191 213 230 241 237 228 238 214 195 195 199 207 199 185 189 197 195 190 188 189 191 192 190 188 186 186 183 186 185 181 182 182 180 179 178 177 180 183 183 182 183 184 184 185 186 188 191 194 195 196 196 196 196 196 196 198 200 200 200 198 197 197 196 196 195 188 182 184 185 186 189 190 189 189 189 193 197 198 199 201 201 200 196 193 196 199 198 199 202 203 201 204 205
210 211 207 203 190 203 217 212 220 229 237 224 211 202 183 193 202 184 184 193 194 192 188 186 188 188 185 183 184 186 187 185 185 183 181 183 182 180 178 178 180 184 184 182 183 184 184 185 187 189 191 194 196 196 197 198 198 197 198 199 201 200 200 199 199 199 197 196 196 193 189 188 190 191 192 192 190 191 194 196 197 197 200 204 203 203 201 198 200 202 199 200 202 199 198 206 211
211 202 214 219 200 200 211 206 225 232 231 231 224 211 177 185 198 180 180 191 191 190 187 182 184 181 178 180 183 186 188 184 182 183 181 182 183 180 178 180 181 183 183 183 183 183 184 186 187 190 192 194 196 197 198 198 198 199 199 200 201 201 200 199 200 200 199 198 197 195 194 194 195 194 194 193 194 196 196 196 197 198 200 204 203 204 207 203 201 200 197 198 201 198 200 208 210
189 202 220 220 200 195 197 227 256 266 250 237 224 238 209 184 209 184 178 189 195 194 186 176 171 171 173 180 185 185 185 182 180 181 181 180 182 182 181 180 181 183 184 185 185 185 185 186 187 189 192 194 196 198 199 199 199 199 200 201 202 201 200 200 200 200 200 199 197 196 197 197 198 197 196 195 195 197 197 196 198 200 201 204 203 204 207 205 202 199 195 198 202 201 205 214 215
197 202 206 207 220 222 182 200 238 244 249 235 220 244 224 191 233 196 178 185 194 194 184 174 164 165 173 179 182 184 184 182 180 181 182 179 181 184 182 181 182 184 185 186 187 186 185 186 187 188 191 194 197 199 199 199 199 199 200 201 201 201 201 200 200 200 199 198 197 197 197 197 199 199 197 196 196 197 197 197 200 202 203 204 204 204 206 206 205 204 201 200 202 203 210 218 218
218 237 196 184 219 228 214 210 205 214 240 243 243 259 229 202 221 191 180 182 186 189 186 178 168 167 173 178 181 182 181 182 182 185 185 181 182 185 184 184 183 184 186 187 186 186 185 186 188 189 192 196 198 199 199 200 199 200 201 201 201 201 201 201 201 200 199 198 197 196 196 197 198 199 198 196 196 196 196 198 201 204 204 203 205 206 206 205 206 207 206 205 203 203 212 218 216
217 255 256 228 218 200 204 219 203 200 222 226 239 264 256 229 204 183 183 179 179 187 188 182 173 171 173 176 182 183 181 184 187 189 190 187 186 185 184 184 183 183 185 185 185 186 187 187 188 190 194 196 198 198 198 199 200 201 202 201 201 201 201 201 201 200 200 199 198 197 197 197 197 199 198 197 196 197 197 199 202 204 203 203 204 207 207 206 207 208 208 208 206 206 212 219 217
196 222 235 236 236 200 195 206 202 193 203 207 211 231 249 250 206 186 189 188 187 186 185 183 176 173 176 178 182 185 185 189 191 190 190 189 187 185 184 183 180 179 181 183 187 188 188 189 189 191 193 195 196 197 198 199 200 201 202 201 201 200 200 200 200 201 201 200 199 199 198 198 198 199 199 198 197 197 199 201 202 203 204 203 204 206 208 208 207 209 211 210 208 208 212 219 219
185 200 224 227 223 213 202 214 212 201 212 211 184 215 250 251 227 203 195 197 197 185 178 182 178 175 179 182 183 185 187 191 193 190 188 188 187 184 182 181 176 175 180 184 187 188 189 190 191 192 193 195 196 197 198 199 200 201 202 202 200 200 200 200 200 202 202 201 200 199 199 199 199 199 200 199 198 197 199 202 202 203 204 204 204 205 207 208 208 209 212 211 208 209 212 217 218